Location: Winthrop
(48.4780°N, 120.1850°W)
Time: 18:27:04
(UTC-07:00)

CAS-4B - Pass Details

Date: 28 May 2022
Orbit: 523 x 537 km, 43.0° (Epoch: 29 June)

Event Time Altitude Azimuth Distance (km) Brightness Sun altitude
Rises 22:17:25 0° 268° (W) 2,657 ? -11.2°
Reaches altitude 10° 22:20:15 10° 248° (WSW) 1,762 ? -11.5°
Maximum altitude 22:22:52 17° 207° (SSW) 1,378 ? -11.8°
Enters shadow 22:24:33 14° 178° (S) 1,543 ? -12.0°
